Pontiac, IL

7:48 PM CST on February 21, 2018 (GMT -0600)
Pontiac Municipal

Weather History for KPNT - December, 2013

Change the Weather History Date:

Friday, December 20, 2013

  Actual Average Record
Temperature  
Mean Temperature 38 °F -  
Max Temperature 44 °F 33 °F 61 °F (1949)
Min Temperature 33 °F 18 °F -15 °F (1983)
Degree Days  
Heating Degree Days 26    
Moisture  
Dew Point 38 °F    
Average Humidity 100    
Maximum Humidity 100    
Minimum Humidity 93    
Precipitation  
Precipitation 0.08 in - - ()
Sea Level Pressure  
Sea Level Pressure 29.76 in    
Wind  
Wind Speed 8 mph (North)    
Max Wind Speed 13 mph    
Max Gust Speed -    
Visibility 1 miles    
Events Fog , Rain    
Averages and records for this station are not official NWS values.
T = Trace of Precipitation, MM = Missing Value Source: NWS Daily Summary

Daily Weather History Graph

Daily Weather History Graph

Search for Another Location

Airport or City:

Trip Planner

Search our weather history database for the weather conditions in past years. The results will help you decide how hot, cold, wet, or windy it might be!

Date:

Astronomy

Dec. 20, 2013 Rise Set
Actual Time 7:15 AM CST 4:29 PM CST
Civil Twilight 6:44 AM CST 5:00 PM CST
Nautical Twilight 6:09 AM CST 5:35 PM CST
Astronomical Twilight 5:36 AM CST 6:08 PM CST
Moon 7:51 PM CST (12/20) 9:08 AM CST (12/20)
Length of Visible Light 10h 16m
Length of Day
9h 13m
Waning Gibbous, 90% of the Moon is Illuminated
Dec 20
Waning Gibbous
Dec 25
Last Quarter
Jan 1
New
Jan 7
First Quarter
Jan 15
Full

Hourly Weather History & Observations

Time (CST) Temp. Windchill Dew Point Humidity Pressure Visibility Wind Dir Wind Speed Gust Speed Precip Events Conditions
12:15 AM 44.6 °F 39.7 °F 44.6 °F 100% 29.75 in 3.0 mi South 9.2 mph - N/A   Overcast
12:35 AM 44.6 °F 39.7 °F 42.8 °F 93% 29.75 in 3.0 mi South 9.2 mph - N/A   Overcast
12:55 AM 42.8 °F 38.0 °F 42.8 °F 100% 29.74 in 3.0 mi South 8.1 mph - N/A   Overcast
1:15 AM 44.6 °F 39.7 °F 42.8 °F 93% 29.74 in 4.0 mi South 9.2 mph - N/A   Overcast
1:55 AM 44.6 °F 39.7 °F 44.6 °F 100% 29.75 in 2.5 mi South 9.2 mph - N/A   Light Drizzle
2:15 AM 44.6 °F 40.2 °F 44.6 °F 100% 29.74 in 2.5 mi South 8.1 mph - N/A   Mostly Cloudy
2:35 AM 44.6 °F 40.2 °F 44.6 °F 100% 29.74 in 2.0 mi South 8.1 mph - 0.01 in   Light Drizzle
2:55 AM 44.6 °F 40.2 °F 44.6 °F 100% 29.74 in 2.0 mi South 8.1 mph - 0.01 in   Mostly Cloudy
3:15 AM 44.6 °F 40.7 °F 44.6 °F 100% 29.74 in 1.8 mi SSW 6.9 mph - N/A   Overcast
3:35 AM 44.6 °F 41.4 °F 44.6 °F 100% 29.74 in 2.0 mi SSW 5.8 mph - N/A   Overcast
3:55 AM 44.6 °F 41.4 °F 44.6 °F 100% 29.74 in 1.5 mi SSW 5.8 mph - N/A   Mostly Cloudy
4:15 AM 44.6 °F 42.2 °F 44.6 °F 100% 29.74 in 1.8 mi SSW 4.6 mph - N/A   Light Drizzle
4:35 AM 44.6 °F 43.1 °F 44.6 °F 100% 29.73 in 2.0 mi SW 3.5 mph - N/A   Overcast
4:55 AM 44.6 °F 42.2 °F 44.6 °F 100% 29.74 in 1.5 mi WSW 4.6 mph - 0.01 in   Drizzle
5:15 AM 44.6 °F 43.1 °F 44.6 °F 100% 29.74 in 0.8 mi WNW 3.5 mph - 0.01 in Rain Rain
5:35 AM 42.8 °F 41.1 °F 42.8 °F 100% 29.74 in 0.2 mi NNW 3.5 mph - 0.01 in   Light Drizzle
5:55 AM 42.8 °F 41.1 °F 42.8 °F 100% 29.74 in 0.2 mi NNW 3.5 mph - 0.02 in Rain Light Rain
6:15 AM 42.8 °F 40.1 °F 42.8 °F 100% 29.74 in 0.2 mi NNE 4.6 mph - N/A Rain Light Rain
6:35 AM 39.2 °F 37.0 °F 39.2 °F 100% 29.75 in 1.0 mi NE 3.5 mph - N/A   Light Drizzle
6:55 AM 37.4 °F 31.4 °F 37.4 °F 100% 29.75 in 1.0 mi NE 8.1 mph - 0.01 in Rain Light Rain
7:15 AM 37.4 °F 31.4 °F 37.4 °F 100% 29.75 in 0.8 mi NE 8.1 mph - N/A Rain Rain
7:35 AM 37.4 °F 30.8 °F 37.4 °F 100% 29.75 in 1.2 mi NE 9.2 mph - N/A   Light Drizzle
7:55 AM 37.4 °F 30.3 °F 37.4 °F 100% 29.75 in 1.0 mi NE 10.4 mph - N/A   Overcast
8:15 AM 37.4 °F 30.8 °F 37.4 °F 100% 29.75 in 1.2 mi NE 9.2 mph - 0.01 in Rain Light Rain
8:35 AM 37.4 °F 30.3 °F 37.4 °F 100% 29.76 in 0.8 mi NE 10.4 mph - 0.01 in Rain Light Rain
8:55 AM 37.4 °F 30.3 °F 37.4 °F 100% 29.76 in 1.0 mi NE 10.4 mph - 0.02 in   Drizzle
9:15 AM 37.4 °F 29.3 °F 37.4 °F 100% 29.76 in 2.0 mi NE 12.7 mph - N/A Rain Light Rain
9:35 AM 37.4 °F 29.8 °F 37.4 °F 100% 29.76 in 1.0 mi ENE 11.5 mph - 0.01 in Rain Light Rain
9:55 AM 37.4 °F 29.3 °F 37.4 °F 100% 29.75 in 1.8 mi ENE 12.7 mph - 0.01 in Rain Light Rain
10:15 AM 37.4 °F 29.3 °F 37.4 °F 100% 29.76 in 1.8 mi ENE 12.7 mph - N/A   Overcast
10:35 AM 37.4 °F 29.3 °F 37.4 °F 100% 29.76 in 2.0 mi NE 12.7 mph - N/A   Overcast
10:55 AM 37.4 °F 29.8 °F 37.4 °F 100% 29.76 in 1.2 mi ENE 11.5 mph - N/A Rain Light Rain
11:15 AM 37.4 °F 29.8 °F 37.4 °F 100% 29.75 in 1.5 mi ENE 11.5 mph - N/A Rain Light Rain
11:35 AM 37.4 °F 30.3 °F 37.4 °F 100% 29.74 in 1.8 mi NE 10.4 mph - N/A Rain Light Rain
11:55 AM 37.4 °F 30.3 °F 37.4 °F 100% 29.73 in 1.5 mi ENE 10.4 mph - N/A   Overcast
12:15 PM 37.4 °F 30.8 °F 37.4 °F 100% 29.72 in 2.0 mi ENE 9.2 mph - N/A   Overcast
12:35 PM 37.4 °F 33.8 °F 37.4 °F 100% 29.72 in 1.2 mi ENE 4.6 mph - N/A   Overcast
12:55 PM 37.4 °F 30.8 °F 37.4 °F 100% 29.71 in 1.5 mi ENE 9.2 mph - N/A   Overcast
1:15 PM 37.4 °F 31.4 °F 37.4 °F 100% 29.72 in 1.8 mi NNE 8.1 mph - N/A   Overcast
1:35 PM 37.4 °F 30.3 °F 37.4 °F 100% 29.71 in 1.2 mi NNE 10.4 mph - N/A   Overcast
1:55 PM 37.4 °F 31.4 °F 37.4 °F 100% 29.70 in 1.2 mi NE 8.1 mph - N/A   Overcast
2:15 PM 37.4 °F 32.8 °F 37.4 °F 100% 29.71 in 1.5 mi North 5.8 mph - N/A   Overcast
2:35 PM 37.4 °F 32.1 °F 37.4 °F 100% 29.72 in 1.2 mi NNE 6.9 mph - N/A   Overcast
2:55 PM 37.4 °F 32.8 °F 37.4 °F 100% 29.72 in 1.2 mi NE 5.8 mph - N/A   Overcast
3:15 PM 37.4 °F 31.4 °F 37.4 °F 100% 29.73 in 1.2 mi NNE 8.1 mph - N/A   Overcast
3:35 PM 37.4 °F 31.4 °F 37.4 °F 100% 29.73 in 1.2 mi NNE 8.1 mph - N/A   Overcast
3:55 PM 37.4 °F 33.8 °F 37.4 °F 100% 29.74 in 0.8 mi NNE 4.6 mph - N/A   Overcast
4:15 PM 37.4 °F 34.9 °F 37.4 °F 100% 29.75 in 0.8 mi North 3.5 mph - N/A   Overcast
4:35 PM 35.6 °F 32.8 °F 35.6 °F 100% 29.74 in 1.0 mi ENE 3.5 mph - N/A   Overcast
4:55 PM 35.6 °F - 35.6 °F 100% 29.74 in 0.8 mi Calm Calm - N/A   Overcast
5:15 PM 35.6 °F - 35.6 °F 100% 29.74 in 0.8 mi Calm Calm - N/A   Mist
5:35 PM 35.6 °F 32.8 °F 35.6 °F 100% 29.76 in 0.5 mi West 3.5 mph - N/A Fog Fog
5:55 PM 35.6 °F 28.6 °F 35.6 °F 100% 29.77 in 0.5 mi WNW 9.2 mph - N/A Fog Fog
6:15 PM 35.6 °F 28.0 °F 35.6 °F 100% 29.78 in 0.5 mi WNW 10.4 mph - N/A Fog Fog
6:35 PM 35.6 °F 28.0 °F 35.6 °F 100% 29.80 in 0.5 mi WNW 10.4 mph - N/A Fog Fog
6:55 PM 35.6 °F 28.6 °F 35.6 °F 100% 29.78 in 0.8 mi WNW 9.2 mph - N/A   Overcast
7:15 PM 35.6 °F 28.6 °F 35.6 °F 100% 29.80 in 1.0 mi WNW 9.2 mph - N/A   Overcast
7:35 PM 33.8 °F 25.8 °F 33.8 °F 100% 29.80 in 1.2 mi WNW 10.4 mph - N/A   Overcast
7:55 PM 33.8 °F 26.4 °F 33.8 °F 100% 29.80 in 1.5 mi WNW 9.2 mph - N/A   Overcast
8:15 PM 33.8 °F 27.0 °F 33.8 °F 100% 29.80 in 1.2 mi NW 8.1 mph - N/A   Overcast
8:35 PM 33.8 °F 26.4 °F 33.8 °F 100% 29.82 in 1.5 mi WNW 9.2 mph - N/A   Overcast
8:55 PM 33.8 °F 26.4 °F 33.8 °F 100% 29.82 in 1.5 mi WNW 9.2 mph - N/A   Overcast
9:15 PM 33.8 °F 26.4 °F 33.8 °F 100% 29.82 in 1.8 mi West 9.2 mph - N/A   Overcast
9:35 PM 33.8 °F 25.8 °F 33.8 °F 100% 29.82 in 1.5 mi WNW 10.4 mph - N/A   Overcast
9:55 PM 33.8 °F 26.4 °F 33.8 °F 100% 29.81 in 1.5 mi WNW 9.2 mph - N/A   Overcast
10:15 PM 33.8 °F 26.4 °F 33.8 °F 100% 29.81 in 1.5 mi WNW 9.2 mph - N/A   Overcast
10:35 PM 33.8 °F 26.4 °F 33.8 °F 100% 29.81 in 1.5 mi WNW 9.2 mph - N/A   Overcast
10:55 PM 33.8 °F 27.0 °F 33.8 °F 100% 29.82 in 1.8 mi West 8.1 mph - N/A   Overcast
11:15 PM 33.8 °F 27.7 °F 33.8 °F 100% 29.81 in 1.0 mi West 6.9 mph - N/A   Overcast
11:35 PM 33.8 °F 27.0 °F 33.8 °F 100% 29.82 in 0.8 mi West 8.1 mph - N/A   Overcast
11:55 PM 33.8 °F 27.7 °F 33.8 °F 100% 29.81 in 2.0 mi West 6.9 mph - N/A   Overcast